Regional Weather Roundup
Issued by NWS

Home | Current Version | Previous Version | Graphics & Text | Print | Product List | Glossary On
Versions: 1 2 3 4 5 6 7 8 9 10 11 12 13 14 15 16 17 18 19 20 21 22 23 24 25 26 27 28 29 30 31 32 33 34 35 36 37 38 39 40 41 42 43 44 45 46 47 48 49 50
000
ASUS43 KMPX 110710
RWRMN
WEATHER ROUNDUP FOR MINNESOTA
NATIONAL WEATHER SERVICE TWIN CITIES/CHANHASSEN MN
100 AM CST MON DEC 11 2017


NOTE: "FAIR" INDICATES FEW OR NO CLOUDS BELOW 12,000 FEET WITH NO
SIGNIFICANT WEATHER AND/OR OBSTRUCTIONS TO VISIBILITY. N/A MEANS
CURRENT SKY AND/OR WEATHER CONDITIONS ARE NOT AVAILABLE.

MNZ060>063-068>070-110800-
   Twin Cities Metro

CITY           SKY/WX    TMP DP  RH WIND       PRES   REMARKS
TWIN CITIES    SNOW      26  25  96 S5        29.92F VSB 1/2 WCI  20
ST PAUL        LGT SNOW  24  23  96 S6        29.93F VSB 3/4 WCI  17
CRYSTAL        LGT SNOW  26  21  81 S5        29.90F VSB 3/4 WCI  20
BLAINE         MIX PCPN  27  25  93 S5        29.90F VSB 1   WCI  21
LAKEVILLE      LGT SNOW  25  25 100 S3        29.91S VSB 3/4
EDEN PRAIRIE   LGT SNOW  26  24  92 S5        29.90F VSB 3/4 WCI  20
SOUTH ST PAUL  LGT SNOW  25  23  93 S3        29.92F VSB 1
LAKE ELMO      LGT SNOW  27  23  86 S6        29.92F WCI  20
$$
MNZ001>005-007-008-013>017-022>024-027-028-110800-
   Northwest Minnesota

CITY           SKY/WX    TMP DP  RH WIND       PRES   REMARKS
BEMIDJI        CLOUDY    22  20  93 S7        29.73F WCI  13
HALLOCK        CLOUDY    27  25  93 S10       29.67F WCI  17
ROSEAU         CLOUDY    23  19  86 S13       29.68F WCI  11
WARROAD        CLOUDY    21  18  86 S8        29.69F WCI  12
THIEF RVR FALL CLOUDY    27  26  96 SW13      29.69F WCI  16
CROOKSTON      PTCLDY    28  27  93 S13       29.71F WCI  18
FOSSTON        CLOUDY    27  25  93 S15       29.72F WCI  15
DETROIT LAKES  MOCLDY    30  28  93 S8        29.76F WCI  23
MOORHEAD       CLOUDY    28  25  86 CALM      29.77F
PARK RAPIDS    CLOUDY    24  21  88 S7        29.75F WCI  16
MAHNOMEN       PTSUNNY   27  25  95 S13       29.72F WCI  16
$$
MNZ006-009>011-018-025>026-110800-
   North Central Minnesota

CITY           SKY/WX    TMP DP  RH WIND       PRES   REMARKS
BAUDETTE       LGT SNOW  20  17  88 SE9       29.72F FOG     WCI   9
FLAG ISLAND    LGT SNOW  19  18  93 S16       29.71F WCI   5
INTL FALLS     LGT SNOW  15  11  83 SE7       29.76F VSB 3/4 WCI   5
WASKISH        LGT SNOW  21  19  93 SE5       29.73F WCI  15
GRAND RAPIDS   LGT SNOW  19  17  92 SE9       29.81F VSB 1   WCI   8
ORR            LGT SNOW  14  10  85 SE6       29.77F WCI   5
COOK           LGT SNOW  14  12  92 SE6       29.80F VSB 1   WCI   5
WALKER         FLURRIES  22  20  91 S5        29.76F WCI  16
$$
MNZ012-019>021-037-110800-
   Northeast Minnesota

CITY           SKY/WX    TMP DP  RH WIND       PRES   REMARKS
DULUTH         FLURRIES  17  13  84 SE10      29.85F WCI   5
ELY            CLOUDY    10   7  85 SE6       29.81F WCI   1
HIBBING        LGT SNOW  15  13  91 SE8       29.81F VSB 3/4 WCI   4
EVELETH        LGT SNOW  12   9  85 CALM      29.83F
DULUTH HARBOR  FLURRIES  19  14  79 SE5       29.92F WCI  13
TWO HARBORS    CLOUDY    16  10  79 CALM      29.87F
G MARAIS ARPRT CLOUDY     3  -2  78 CALM      29.84F
$$
MNZ029>031-032-039>041-046>048-054>057-064-110800-
   West Central Minnesota

CITY           SKY/WX    TMP DP  RH WIND       PRES   REMARKS
FERGUS FALLS   CLOUDY    27  25  93 S8        29.81F WCI  18
MORRIS         CLOUDY    30  25  80 S7        29.81F WCI  23
ALEXANDRIA     CLOUDY    28  24  85 S8        29.81F WCI  20
ELBOW LAKE     FAIR      27  25  90 S9        29.80F WCI  18
WADENA         CLOUDY    27  27 100 S8        29.76F WCI  18
GLENWOOD       CLOUDY    28  27  93 S6        29.82F WCI  22
BENSON         CLOUDY    30  27  86 S5        29.84F WCI  25
ORTONVILLE     CLOUDY    32  27  80 SW3       29.83F
MADISON        CLOUDY    36  30  80 SW5       29.84F
WILLMAR        FAIR      32  27  80 CALM      29.86F
$$
MNZ033>034-036-042>043-049>051-058-059-110800-
   Central Minnesota

CITY           SKY/WX    TMP DP  RH WIND       PRES   REMARKS
ST CLOUD       LGT SNOW  25  25 100 SE5       29.86F FOG     WCI  19
SAUK CENTRE    CLOUDY    27  26  94 S6        29.83F WCI  21
PAYNESVILLE    CLOUDY    29  28  95 S6        29.84F WCI  23
AITKIN         LGT SNOW  21  19  93 S6        29.81F VSB 1   WCI  14
PINE RIVER     LGT SNOW  21  19  93 S6        29.83F WCI  14
BRAINERD       LGT SNOW  25  22  88 S7        29.81F VSB 1   WCI  17
STAPLES        MIX PCPN  25  23  93 S6        29.79F WCI  18
LONG PRAIRIE   LGT SNOW  27  27 100 SE7       29.81F WCI  19
LITTLE FALLS   LGT SNOW  27  21  80 SE7       29.81F WCI  19
LITCHFIELD     CLOUDY    30  28  93 CALM      29.86F
BUFFALO        LGT SNOW  26  24  93 S3        29.89F
MAPLE LAKE     LGT SNOW  27  26  96 S3        29.87F
HUTCHINSON     CLOUDY    30  28  90 SE3       29.87F
$$
MNZ037-044-045-052-053-110800-
   East Central Minnesota

CITY           SKY/WX    TMP DP  RH WIND       PRES   REMARKS
PRINCETON      LGT SNOW  27  23  86 S3        29.87F
MORA           HVY RAIN  23  21  93 S3        29.89F
CAMBRIDGE      LGT SNOW  27  21  80 SE5       29.88F VSB 3/4 WCI  21
RUSH CITY      LGT SNOW  22  20  91 S6        29.90F WCI  15
MOOSE LAKE     LGT SNOW  21  18  86 CALM      29.85F VSB 1
HINCKLEY       LGT SNOW  23  21  93 SE3       29.89F VSB 1
CLOQUET        LGT SNOW  18  12  79 SE3       29.86F
MCGREGOR       CLOUDY    23  21  93 SE7       29.83F VSB 1   WCI  15
$$
MNZ071>073-080-081-089-090-097-098-110800-
   Southwest Minnesota

CITY           SKY/WX    TMP DP  RH WIND       PRES   REMARKS
MONTEVIDEO     PTCLDY    32  27  80 SW3       29.84F
GRANITE FALLS  CLOUDY    33  28  83 S6        29.86F WCI  28
CANBY          CLOUDY    39  30  69 W3        29.85F
MARSHALL       CLOUDY    37  28  70 W12       29.86F
REDWOOD FALLS  CLOUDY    33  27  78 S7        29.86F WCI  27
OLIVIA         CLOUDY    32  28  86 S7        29.84F WCI  26
PIPESTONE      CLOUDY    34  27  75 W10       29.89F WCI  26
WINDOM           N/A     34  21  60 SW7       29.87F WCI  28
WORTHINGTON    CLOUDY    35  27  72 SW14      29.90F WCI  26
JACKSON        CLOUDY    32  28  86 MISG      29.87F
TRACY          CLOUDY    36  30  80 SW6       29.86F
$$
MNZ065>067-074>077-082>085-091>093-110800-
   South Central Minnesota

CITY           SKY/WX    TMP DP  RH WIND       PRES   REMARKS
MANKATO        CLOUDY    30  27  88 S6        29.89F WCI  24
NEW ULM        CLOUDY    32  27  80 S9        29.87F WCI  24
ST JAMES       CLOUDY    32  28  86 S7        29.89F WCI  26
FAIRMONT       CLOUDY    31  28  89 S12       29.88F WCI  22
GLENCOE        CLOUDY    29  28  93 SE6       29.86F WCI  23
FARIBAULT      FLURRIES  27  25  93 S3        29.92S
WASECA         CLOUDY    30  27  86 S7        29.90F WCI  23
ALBERT LEA     CLOUDY    28  23  80 S7        29.90F WCI  21
$$
MNZ078>079-086>088-094>096-110800-
   Southeast Minnesota

CITY           SKY/WX    TMP DP  RH WIND       PRES   REMARKS
ROCHESTER      FLURRIES  25  22  88 S8        29.92F WCI  16
RED WING       FLURRIES  27  19  74 SE5       29.93F WCI  21
STANTON        LGT SNOW  27  24  88 S5        29.91F WCI  22
DODGE CENTER   LGT SNOW  25  23  93 S8        29.90F WCI  16
WINONA         CLOUDY    30  23  74 SE3       29.97F
AUSTIN         CLOUDY    27  23  86 S9        29.92F WCI  17
PRESTON        MOCLDY    24  20  86 S5        29.94F WCI  18
$$
ABBREVIATIONS USED IN REMARKS
   TC - TEMPERATURES IN CELSIUS
  WCI - WIND CHILL INDEX
   HX - HEAT INDEX
  VSB - VISIBILITY
$$




USA.gov is the U.S. government's official web portal to all federal, state and local government web resources and services.